FW8688 Weather Reports


Display with metric or nautical units.
time (UTC)temp
F
wind
direction
speed
MPH
gust
MPH
rain 1hr
in
rain 24hr
in
rain mn
in
humidity
%
barometer
mb
20210411005317 68 127 2.0 4.0 0.00 0.00 0.00 18 1020.3
20210411004335 68 169 0.0 4.0 0.00 0.00 0.00 17 1020.3
20210411001837 68 243 4.0 6.0 0.00 0.00 0.00 17 1020.3
20210411001339 68 142 4.0 6.0 0.00 0.00 0.00 18 1020.5
20210411000806 69 148 4.0 6.0 0.00 0.00 0.00 16 1020.5
20210410235845 69 152 4.0 7.0 0.00 0.00 0.00 16 1020.8
20210410235316 69 153 4.0 5.0 0.00 0.00 0.00 17 1020.9
20210410234820 69 196 3.0 5.0 0.00 0.00 0.00 17 1020.9
20210410233826 68 184 4.0 8.0 0.00 0.00 0.00 17 1020.8
20210410233351 68 158 4.0 10.0 0.00 0.00 0.00 17 1020.8
20210410232837 69 158 5.0 10.0 0.00 0.00 0.00 18 1020.9
20210410232307 68 161 5.0 7.0 0.00 0.00 0.00 17 1021.2
20210410231814 68 86 0.0 9.0 0.00 0.00 0.00 17 1020.8
20210410225831 67 145 4.0 9.0 0.00 0.00 0.00 17 1021.4
20210410224334 67 132 6.0 9.0 0.00 0.00 0.00 17 1021.6
20210410223020 67 144 2.0 11.0 0.00 0.00 0.00 18 1021.8
20210410221954 67 158 5.0 10.0 0.00 0.00 0.00 17 1021.9
20210410220840 67 128 6.0 9.0 0.00 0.00 0.00 18 1022.0
20210410215848 66 133 6.0 11.0 0.00 0.00 0.00 18 1022.0
20210410213327 65 151 8.0 11.0 0.00 0.00 0.00 18 1022.2
20210410211952 66 168 4.0 10.0 0.00 0.00 0.00 19 1022.6
20210410211327 67 145 7.0 10.0 0.00 0.00 0.00 21 1022.7
20210410210346 67 113 3.0 8.0 0.00 0.00 0.00 17 1022.9
20210410204349 66 85 3.0 11.0 0.00 0.00 0.00 19 1023.4
20210410203841 66 98 3.0 11.0 0.00 0.00 0.00 19 1023.5
20210410200857 63 59 2.0 8.0 0.00 0.00 0.00 20 1024.0
20210410200113 62 98 3.0 8.0 0.00 0.00 0.00 21 1024.6
20210410195106 62 113 3.0 8.0 0.00 0.00 0.00 21 1024.3
20210410194333 62 99 3.0 9.0 0.00 0.00 0.00 22 1024.5
20210410193847 61 132 5.0 9.0 0.00 0.00 0.00 23 1024.6
20210410192914 61 120 3.0 8.0 0.00 0.00 0.00 22 1024.8
20210410192746 60 132 4.0 9.0 0.00 0.00 0.00 22 1024.8
20210410191851 60 129 4.0 9.0 0.00 0.00 0.00 22 1024.8
20210410190820 59 124 6.0 9.0 0.00 0.00 0.00 23 1025.0
20210410190501 59 118 5.0 8.0 0.00 0.00 0.00 23 1025.2
20210410183306 57 107 6.0 9.0 0.00 0.00 0.00 27 1025.4
20210410182934 57 126 5.0 9.0 0.00 0.00 0.00 26 1025.4
20210410182008 57 153 6.0 10.0 0.00 0.00 0.00 27 1025.6
20210410180827 56 118 3.0 8.0 0.00 0.00 0.00 28 1025.9
20210410180333 56 144 5.0 8.0 0.00 0.00 0.00 27 1025.9
20210410175836 55 138 4.0 9.0 0.00 0.00 0.00 28 1026.0
20210410174348 55 106 4.0 8.0 0.00 0.00 0.00 30 1026.2
20210410173829 54 146 4.0 9.0 0.00 0.00 0.00 32 1026.3
20210410173323 54 148 4.0 9.0 0.00 0.00 0.00 32 1026.4
20210410172746 53 117 4.0 8.0 0.00 0.00 0.00 36 1026.2
20210410171922 53 121 4.0 9.0 0.00 0.00 0.00 38 1026.3
20210410170828 53 134 5.0 8.0 0.00 0.00 0.00 37 1026.4
20210410170107 52 134 5.0 9.0 0.00 0.00 0.00 34 1026.9
20210410165858 52 131 5.0 9.0 0.00 0.00 0.00 36 1026.8
20210410164321 52 111 4.0 9.0 0.00 0.00 0.00 35 1026.7
20210410163042 51 143 5.0 8.0 0.00 0.00 0.00 36 1026.8
20210410160345 49 93 3.0 8.0 0.00 0.00 0.00 36 1026.7
20210410153332 48 123 2.0 5.0 0.00 0.00 0.00 43 1027.0
20210410152651 48 163 0.0 3.0 0.00 0.00 0.00 44 1027.0
20210410151918 47 142 1.0 2.0 0.00 0.00 0.00 45 1026.7
20210410151329 47 156 1.0 3.0 0.00 0.00 0.00 45 1026.9
20210410150037 46 190 0.0 2.0 0.00 0.00 0.00 50 1026.9
20210410145022 45 180 0.0 2.0 0.00 0.00 0.00 51 1027.0
20210410144334 45 145 1.0 2.0 0.00 0.00 0.00 51 1027.0
20210410143837 44 113 0.0 1.0 0.00 0.00 0.00 52 1026.7
20210410143341 42 108 0.0 1.0 0.00 0.00 0.00 54 1026.7
20210410142800 41 100 0.0 0.0 0.00 0.00 0.00 55 1026.4
20210410141930 40 100 0.0 0.0 0.00 0.00 0.00 56 1026.0
20210410141313 39 100 0.0 1.0 0.00 0.00 0.00 56 1026.0
20210410140438 38 143 0.0 0.0 0.00 0.00 0.00 57 1025.6
20210410140214 37 143 0.0 0.0 0.00 0.00 0.00 58 1026.3
20210410135923 37 143 0.0 0.0 0.00 0.00 0.00 59 1026.2
20210410134343 36 143 0.0 0.0 0.00 0.00 0.00 59 1025.8
20210410133343 36 143 0.0 0.0 0.00 0.00 0.00 59 1025.8
20210410132822 36 143 0.0 2.0 0.00 0.00 0.00 60 1025.6
20210410131947 36 143 0.0 2.0 0.00 0.00 0.00 60 1025.6
20210410131323 36 125 1.0 2.0 0.00 0.00 0.00 60 1025.6
20210410130828 35 89 0.0 0.0 0.00 0.00 0.00 60 1025.6
20210410130322 35 89 0.0 0.0 0.00 0.00 0.00 61 1025.6
20210410125319 35 89 0.0 0.0 0.00 0.00 0.00 59 1025.8
20210410122822 35 88 0.0 2.0 0.00 0.00 0.00 57 1025.8
20210410121832 35 88 1.0 2.0 0.00 0.00 0.00 57 1025.8
20210410121305 35 93 1.0 2.0 0.00 0.00 0.00 56 1025.8
20210410120317 35 89 1.0 2.0 0.00 0.00 0.00 56 1025.8
20210410114340 36 89 0.0 1.0 0.00 0.00 0.00 54 1026.5
20210410113816 37 89 0.0 0.0 0.00 0.00 0.00 53 1026.5
20210410113319 37 89 0.0 0.0 0.00 0.00 0.00 53 1026.5
20210410112108 37 89 0.0 1.0 0.00 0.00 0.00 53 1026.9
20210410111334 38 86 1.0 1.0 0.00 0.00 0.00 53 1027.2
20210410110824 38 82 0.0 2.0 0.00 0.00 0.00 51 1027.1
20210410105921 38 78 1.0 1.0 0.00 0.00 0.00 50 1027.3
20210410104908 38 76 0.0 2.0 0.00 0.00 0.00 49 1027.3
20210410103304 38 75 1.0 3.0 0.00 0.00 0.00 49 1027.5
20210410101952 37 90 1.0 2.0 0.00 0.00 0.00 47 1027.6
20210410100838 38 90 0.0 2.0 0.00 0.00 0.00 49 1027.5
20210410100334 38 90 1.0 2.0 0.00 0.00 0.00 49 1027.6
20210410095839 38 90 0.0 2.0 0.00 0.00 0.00 49 1027.6
20210410095040 38 89 2.0 2.0 0.00 0.00 0.00 49 1027.5
20210410094338 38 88 0.0 3.0 0.00 0.00 0.00 49 1027.6
20210410092838 39 88 0.0 1.0 0.00 0.00 0.00 48 1027.6
20210410092625 39 88 0.0 2.0 0.00 0.00 0.00 48 1028.1
20210410091902 39 88 0.0 3.0 0.00 0.00 0.00 45 1028.0
20210410084918 40 71 2.0 3.0 0.00 0.00 0.00 44 1027.5
20210410084324 40 71 2.0 3.0 0.00 0.00 0.00 43 1027.6
20210410083348 40 81 2.0 3.0 0.00 0.00 0.00 41 1027.7
20210410082449 41 135 1.0 2.0 0.00 0.00 0.00 40 1028.0
20210410081849 41 126 1.0 2.0 0.00 0.00 0.00 40 1028.0
20210410081347 40 110 2.0 2.0 0.00 0.00 0.00 40 1027.7
20210410080329 41 166 0.0 2.0 0.00 0.00 0.00 39 1028.0
20210410073815 41 193 1.0 3.0 0.00 0.00 0.00 38 1027.7
20210410073329 41 168 1.0 2.0 0.00 0.00 0.00 38 1027.8
20210410072835 41 112 1.0 2.0 0.00 0.00 0.00 39 1027.8
20210410072631 41 112 1.0 2.0 0.00 0.00 0.00 39 1027.8
20210410070323 42 125 1.0 3.0 0.00 0.00 0.00 38 1027.8
20210410065028 42 72 1.0 4.0 0.00 0.00 0.00 36 1027.5
20210410064311 42 66 3.0 4.0 0.00 0.00 0.00 35 1027.6
20210410063831 42 57 2.0 3.0 0.00 0.00 0.00 35 1027.5
20210410063530 43 327 1.0 2.0 0.00 0.00 0.00 34 1027.9
20210410062912 43 272 0.0 1.0 0.00 0.00 0.00 33 1027.9
20210410061327 43 284 1.0 2.0 0.00 0.00 0.00 33 1028.0
20210410060822 44 298 0.0 1.0 0.00 0.00 0.00 33 1028.0
20210410060352 44 298 0.0 1.0 0.00 0.00 0.00 33 1028.0
20210410055854 44 300 0.0 1.0 0.00 0.00 0.00 32 1027.8
20210410053845 45 301 0.0 1.0 0.00 0.00 0.00 31 1027.8
20210410052757 45 304 0.0 4.0 0.00 0.00 0.00 30 1027.8
20210410051332 46 302 2.0 4.0 0.00 0.00 0.00 28 1028.1
20210410050843 46 266 3.0 4.0 0.00 0.00 0.00 28 1028.2
20210410044921 47 320 1.0 3.0 0.00 0.00 0.00 27 1028.1
20210410042713 48 300 1.0 5.0 0.00 0.00 0.00 27 1028.6
20210410041905 48 309 3.0 6.0 0.00 0.00 0.00 27 1028.6
20210410041327 48 314 3.0 6.0 0.00 0.00 0.00 27 1028.6
20210410040044 48 313 3.0 5.0 0.00 0.00 0.00 25 1028.1
20210410033846 49 300 2.0 6.0 0.00 0.00 0.00 25 1028.2
20210410033350 49 310 3.0 6.0 0.00 0.00 0.00 25 1028.2
20210410030135 50 282 3.0 5.0 0.00 0.00 0.00 23 1028.0
20210410023815 51 289 4.0 6.0 0.00 0.00 0.00 22 1027.8
20210410023315 51 289 4.0 6.0 0.00 0.00 0.00 21 1027.8
20210410022910 51 309 3.0 7.0 0.00 0.00 0.00 21 1027.8
20210410021853 52 295 3.0 8.0 0.00 0.00 0.00 20 1028.0
20210410020318 53 295 4.0 9.0 0.00 0.00 0.00 20 1027.8
20210410015930 53 294 6.0 9.0 0.00 0.00 0.00 20 1027.5
20210410014901 54 284 5.0 8.0 0.00 0.00 0.00 20 1027.5
20210410014347 54 300 4.0 8.0 0.00 0.00 0.00 20 1027.5
20210410012654 56 299 5.0 11.0 0.00 0.00 0.00 20 1027.8
20210410011318 56 326 7.0 10.0 0.00 0.00 0.00 19 1027.7
20210410010821 56 315 5.0 10.0 0.00 0.00 0.00 20 1027.7
20210410010336 56 315 6.0 10.0 0.00 0.00 0.00 20 1027.7
20210410005847 57 318 6.0 10.0 0.00 0.00 0.00 20 1027.7